Location: Härggis
(46.9540°N, 8.4897°E)
Time: 01:47:49
(UTC+00:00)

USA 229 - Pass Details

Date: 27 May 2022
Orbit: 938 x 1274 km, 63.4° (Epoch: 24 May)

Event Time Altitude Azimuth Distance (km) Brightness Sun altitude
Rises 00:16:44 0° 318° (NW) 3,979 7.2 -20.7°
Reaches altitude 10° 00:19:24 10° 315° (NW) 3,063 6.5 -20.6°
Maximum altitude 00:26:37 58° 239° (WSW) 1,395 4.0 -20.3°
Enters shadow 00:30:48 28° 172° (S) 2,142 4.8 -20.1°
